Regional Weather Roundup
Issued by NWS Midland/Odessa, TX

Skip options and go directly to product.
Home | Oldest Version | Next Version | Current Version | All | Text Only | Save Text | Print | Product List | Glossary On

Skip product version selection by date and time.   
145
ASUS44 KMAF 300902
RWRMAF
MIDLAND AREA WEATHER ROUNDUP
NATIONAL WEATHER SERVICE MIDLAND TX
400 AM CDT THU OCT 30 2014

...IN SOUTHWEST TEXAS AND SOUTHEAST NEW MEXICO...

CITY           SKY/WX    TMP DP  RH WIND       PRES   REMARKS
ALPINE         CLEAR     51  48  90 SW6       30.25F
ANDREWS        FAIR      56  52  87 CALM      30.14S
ARTESIA        NOT AVBL
BIG SPRING     CLEAR     61  56  84 S6        30.14S
CARLSBAD       CLEAR     54  49  83 NW6       30.11S
DRYDEN           N/A     65  60  84 N8        30.09R
FORT STOCKTON  CLEAR     60  57  89 S7        30.12S
GUAD PASS      NOT AVBL
HOBBS          CLEAR     54  52  94 CALM      30.15S
MARFA          CLEAR     46  45  93 N5        30.24S
MIDLAND AIRPK  CLEAR     61  55  81 S6        30.13S
MIDLAND INTL   CLEAR     57  53  86 S6        30.12S
ODESSA         CLEAR     58  52  80 S5        30.13S
PECOS          CLEAR     51  48  90 W6        30.11S
PRESIDIO       FAIR      67  55  66 N7        30.11S
SEMINOLE       CLEAR     51  47  86 CALM      30.14F
SNYDER         CLEAR     56  51  82 SE3       30.12F
WINK           CLEAR     52  46  80 NW8       30.10S
$$
...OTHER STATIONS IN TEXAS...

CITY           SKY/WX    TMP DP  RH WIND       PRES   REMARKS
ABILENE        CLEAR     60  49  66 S13       30.12F
AMARILLO       CLEAR     49  44  83 S13       30.12S
AUSTIN         CLOUDY    63  60  90 NE6       30.11S
BROWNSVILLE    CLEAR     69  68  96 CALM      30.03F
CORPUS CHRISTI PTCLDY    71  68  90 NE5       30.04F
DALLAS FTW     CLEAR     55  45  68 SE5       30.13S
DEL RIO        CLEAR     69  63  81 E7        30.06S
EL PASO        CLEAR     56  44  64 CALM      30.16S
HOUSTON INT    PTCLDY    60  57  89 NE3       30.10S
LUBBOCK        CLEAR     53  47  79 S8        30.12S
SAN ANGELO     PTCLDY    59  54  83 CALM      30.11S
SAN ANTONIO    MOCLDY    67  62  84 NE3       30.10S
WACO           CLEAR     51  48  89 N5        30.13S
WICHITA FALLS  NOT AVBL
$$
...OTHER LOCATIONS IN NEW MEXICO...

CITY           SKY/WX    TMP DP  RH WIND       PRES   REMARKS
ALAMAGORDO     NOT AVBL
ALBUQUERQUE    PTCLDY    53  14  21 N10       30.27S
CANNON AFB     CLEAR     50  46  87 W6        30.14S
CLOVIS         CLEAR     45  41  87 W6        30.16S
HOLLOMAN AFB   PTCLDY    47  34  60 NE5       30.18S
ROSWELL        CLEAR     47  43  86 CALM      30.13F
RUIDOSO        CLEAR     46  27  46 W3        30.30F
SANTA FE       PTCLDY    42  11  28 N10       30.29S WCI  36
TRUTH OR CONSE CLEAR     53  36  52 N6        30.22R
TUCUMCARI      CLEAR     43  39  86 W7        30.11R WCI  39
$$

USA.gov is the U.S. government's official web portal to all federal, state and local government web resources and services.